GFSMA_sfc_thetae_159.txt.gz
Theta_e
348 348 348 346 347 350 352 352 353 352 351 350 349 349 347 349 351 351 350 348 347 349 351 351 350 350 349 350 350 351 351 351 350 350 348 347 348 349 348 347 348 348 348
348 345 346 345 346 349 353 353 352 351 349 349 347 347 350 352 352 350 346 347 344 342 343 343 343 343 343 344 346 348 348 348 349 350 349 348 347 348 346 345 344 345 346
349 347 343 343 347 352 351 352 353 352 349 350 350 350 350 351 348 344 343 342 341 338 336 336 334 335 336 337 337 339 342 343 344 345 346 347 346 346 346 344 342 342 344
348 347 346 347 351 352 353 352 350 349 348 348 347 348 347 347 348 343 340 337 335 333 332 330 331 330 332 333 334 335 336 339 341 343 344 345 344 344 344 343 342 341 341
346 345 347 349 355 351 352 351 349 347 344 344 342 344 344 347 343 339 335 332 330 327 326 326 327 326 328 330 332 332 332 333 335 336 335 335 338 339 340 341 341 341 340
347 345 346 351 354 353 351 351 346 344 340 337 338 339 341 341 341 338 332 329 327 326 325 326 325 324 324 327 327 328 329 330 330 331 332 331 331 332 337 338 338 339 338
348 349 351 352 353 347 344 343 344 340 338 336 337 333 339 340 339 334 332 326 324 323 323 323 323 324 324 324 324 326 327 329 329 329 329 329 328 330 331 331 333 336 337
352 349 346 346 345 340 337 334 334 337 335 332 331 332 325 328 335 330 330 324 323 321 320 321 323 324 324 324 324 324 325 328 328 328 327 326 327 328 328 329 330 332 335
340 346 338 335 336 335 331 330 331 333 331 330 326 327 320 316 317 325 322 320 322 320 320 321 323 323 324 324 324 324 325 325 326 327 326 325 326 326 327 327 327 329 330
336 337 335 333 333 332 329 328 328 330 325 324 321 323 322 320 313 309 315 318 319 319 321 321 322 323 324 323 324 323 323 324 324 324 324 324 325 326 326 326 326 327 328
335 329 328 325 327 327 325 323 321 321 319 318 318 319 319 322 321 313 308 311 317 319 320 320 322 322 323 323 324 323 322 321 321 321 322 322 322 323 324 325 325 326 326
324 323 322 323 324 324 322 320 320 319 318 319 319 319 317 316 313 313 310 312 312 317 320 320 320 321 322 323 322 321 320 320 320 320 320 320 320 321 321 322 323 324 325
322 319 321 322 322 322 320 320 320 320 320 319 320 318 319 316 318 315 313 310 310 316 318 322 320 321 321 322 322 321 322 320 319 318 318 318 319 318 318 318 320 322 322
319 318 320 319 320 319 318 319 319 318 319 319 319 319 317 317 318 317 313 309 307 313 315 316 318 319 321 321 321 321 320 319 318 316 317 317 318 317 316 316 316 316 317
322 320 319 317 318 317 317 317 317 318 319 319 318 319 318 319 319 317 314 311 309 305 308 314 314 319 319 321 321 322 320 319 318 317 316 317 317 316 315 315 314 314 315
318 316 316 315 313 315 315 315 315 317 318 317 317 319 318 317 318 318 318 318 314 310 307 313 314 318 320 320 320 321 321 319 317 316 317 317 315 314 314 314 314 313 313
315 313 313 312 311 312 313 314 315 315 316 317 319 318 317 317 315 316 317 316 315 313 307 313 315 318 319 318 318 320 320 320 319 317 316 316 314 313 313 313 313 312 312
313 311 311 310 310 309 311 313 314 315 316 317 318 317 315 315 315 315 314 315 314 314 312 310 314 313 315 317 316 317 316 317 317 317 316 315 314 312 311 311 310 311 308
311 310 310 309 309 310 311 313 314 315 317 319 318 315 315 315 314 313 313 313 313 313 312 310 310 313 313 314 313 315 314 315 315 316 315 314 313 313 312 311 310 309 305
309 309 309 308 309 309 311 312 314 315 318 318 319 316 315 314 313 313 312 313 311 310 310 309 309 309 309 312 311 308 307 310 310 314 316 313 312 313 312 311 311 309 306
308 307 307 307 308 307 306 312 314 315 317 316 315 314 314 310 307 306 309 310 309 307 307 306 306 306 306 305 304 304 303 304 307 312 312 312 313 313 313 312 312 309 305
307 306 305 305 305 303 297 300 309 315 314 313 311 313 313 310 309 305 304 303 302 303 303 303 303 302 304 303 303 300 300 300 299 311 308 309 310 310 311 311 307 305 304
306 304 304 305 303 302 296 296 302 314 313 310 308 308 308 307 307 308 305 304 303 301 300 302 301 301 300 302 301 301 300 300 300 305 308 303 308 307 309 309 306 304 303
303 302 302 303 303 299 294 295 299 310 308 306 307 306 306 305 299 299 302 303 303 302 301 300 300 300 300 300 301 301 301 302 304 306 305 299 307 306 308 310 306 304 302
303 302 302 302 303 301 294 294 301 308 307 305 304 300 303 300 294 293 300 299 299 300 299 297 297 295 294 294 296 301 299 296 295 299 303 299 303 302 303 307 307 304 301
304 303 301 302 297 302 292 293 298 306 306 304 302 301 295 296 292 291 297 296 294 294 296 297 300 300 300 301 299 302 300 294 294 295 303 297 298 299 296 304 303 304 303

GFSMA_sfc_thetae_162.txt.gz
Theta_e
349 349 347 344 344 346 348 349 354 356 357 357 354 352 351 354 355 352 350 346 343 343 344 343 343 343 343 344 346 346 346 346 347 349 350 350 349 347 347 348 347 348 347
350 345 347 344 344 349 354 355 357 357 358 356 353 354 355 355 353 352 347 347 340 338 336 336 336 336 337 337 339 340 343 343 342 344 346 347 348 346 345 345 346 345 346
352 348 342 342 344 355 357 356 357 361 359 357 352 351 352 352 349 349 347 343 343 337 332 330 332 332 333 334 335 336 337 337 335 339 339 341 342 342 342 343 344 345 345
351 350 343 340 349 354 353 357 360 354 353 349 346 347 348 347 346 344 343 340 337 333 335 329 328 327 329 331 332 332 332 333 333 335 335 333 333 334 338 340 340 342 341
349 347 344 346 357 355 359 356 353 353 347 343 341 342 346 344 345 341 340 337 334 331 329 332 331 326 325 328 328 329 330 330 331 330 331 331 331 331 332 333 336 338 338
349 348 350 354 357 355 353 354 352 348 342 339 338 338 343 343 343 341 337 333 331 329 327 327 326 326 324 325 326 328 329 329 329 329 329 329 329 329 330 331 332 333 334
349 350 350 355 355 353 350 346 346 343 336 337 336 337 338 343 342 339 336 331 328 325 324 324 325 326 327 330 328 327 328 329 330 330 328 328 327 328 328 329 329 329 331
354 353 353 347 346 342 340 337 338 338 336 335 332 329 325 329 336 338 332 327 325 323 323 325 326 328 327 327 328 326 327 328 330 329 327 326 327 328 328 328 328 329 329
350 348 345 344 337 333 332 334 332 333 333 337 331 326 320 317 319 323 325 321 325 322 324 325 326 327 327 328 328 328 325 326 326 326 324 324 325 326 327 327 327 327 328
342 340 337 335 340 335 330 330 331 333 331 326 327 325 324 321 312 310 318 319 322 323 326 325 326 327 328 327 327 326 323 322 323 324 324 323 323 323 323 323 324 326 327
342 340 340 340 336 327 330 326 327 326 324 322 322 321 322 320 322 315 310 314 320 322 324 324 325 325 327 327 325 325 323 321 321 321 321 322 322 322 322 322 322 323 324
334 336 335 334 329 330 327 326 325 325 324 325 324 321 317 314 314 315 313 316 316 320 323 324 323 322 324 323 324 323 324 320 319 318 318 320 321 320 321 321 321 322 322
333 335 330 331 330 328 326 326 325 325 324 323 323 319 318 317 318 318 316 315 315 319 322 324 323 324 323 323 324 322 325 319 319 318 318 318 319 318 318 319 319 319 320
328 326 330 329 325 323 324 325 323 323 324 322 320 321 319 321 322 320 317 314 312 315 318 320 322 322 323 323 324 324 324 319 319 317 317 318 318 316 316 316 316 316 316
326 325 324 323 323 323 324 325 323 322 323 322 322 322 322 324 323 320 318 315 311 309 312 318 317 324 323 324 323 324 323 321 321 317 316 317 317 316 315 314 314 315 315
328 324 322 321 322 321 321 321 321 321 321 321 322 323 322 321 321 321 317 317 316 313 311 317 318 322 323 322 323 323 324 322 319 317 317 317 316 315 315 314 313 313 314
325 322 322 320 320 320 319 321 321 319 319 321 321 320 319 321 319 319 319 319 318 317 313 316 319 322 323 322 322 322 322 321 321 316 316 316 315 314 313 313 312 311 309
323 321 320 318 317 317 320 320 319 320 320 319 321 320 317 317 319 321 318 319 319 319 316 314 318 317 320 321 321 320 319 318 319 318 315 316 314 312 312 311 311 309 306
321 320 318 317 316 317 318 320 321 320 321 321 319 317 317 318 317 318 319 318 317 316 317 314 314 316 317 317 316 318 317 317 316 317 316 316 313 313 313 312 310 308 306
319 317 317 317 317 317 318 319 320 321 320 321 320 319 318 317 316 316 316 317 316 314 314 312 312 312 313 316 313 311 309 312 312 314 315 314 312 314 313 312 311 310 306
316 316 316 316 316 314 310 317 320 318 319 319 320 318 317 311 306 307 310 312 311 309 309 308 308 309 309 308 307 308 307 309 311 313 313 313 314 314 314 313 313 310 306
315 315 314 314 313 309 297 300 305 317 318 317 316 316 316 313 311 305 304 304 303 306 305 304 305 305 306 305 305 305 306 305 302 311 308 308 310 310 312 314 306 306 304
314 314 313 312 310 308 296 296 302 318 316 314 310 312 312 310 306 307 307 307 307 302 301 302 303 302 302 303 304 304 304 301 301 307 309 306 309 308 311 310 305 303 303
311 311 311 312 309 302 295 295 298 316 315 314 312 312 312 307 299 298 304 307 307 308 306 301 301 302 303 304 304 303 304 304 306 307 308 299 306 306 308 309 304 303 302
310 310 310 310 309 305 294 294 302 315 312 311 308 304 305 303 292 292 300 302 302 303 300 299 298 296 295 295 297 301 300 298 296 298 304 299 301 301 304 306 307 304 301
310 309 308 309 301 308 292 294 298 312 311 311 309 306 293 294 290 290 297 298 297 297 300 302 304 304 302 304 300 304 300 297 297 295 303 298 298 298 295 305 303 304 301

GFSMA_sfc_thetae_165.txt.gz
Theta_e
352 347 347 344 345 343 344 344 345 351 352 351 351 352 351 354 352 349 349 346 343 341 339 338 338 338 338 338 341 341 338 338 338 339 341 343 344 344 345 345 346 347 347
357 346 348 345 343 343 345 347 348 350 351 352 351 354 354 354 352 350 347 344 342 339 336 334 332 332 333 334 336 336 335 335 335 335 336 335 336 338 341 342 342 344 345
357 357 344 343 342 349 351 352 353 353 352 353 353 351 349 350 347 349 346 343 341 336 332 330 330 330 330 331 331 331 331 331 332 332 333 335 333 333 334 335 338 341 341
354 352 344 343 342 350 349 348 349 351 354 350 347 346 348 349 347 346 345 341 338 333 334 335 328 331 328 330 330 331 330 330 330 330 332 331 331 331 331 332 333 334 337
350 348 342 342 352 347 348 355 353 353 349 345 341 342 345 345 347 343 344 341 337 333 329 333 336 334 324 327 327 330 330 330 330 331 331 330 330 330 330 330 330 331 332
349 349 344 352 352 350 353 356 353 348 343 339 338 338 345 343 345 343 341 338 334 333 329 331 327 327 326 327 328 328 330 330 330 330 329 328 328 328 329 330 330 330 330
349 351 346 356 356 348 350 351 348 343 338 338 336 337 340 343 345 342 341 337 334 328 328 326 328 327 327 333 330 328 330 329 329 329 327 326 326 327 328 329 329 329 330
352 350 356 352 347 342 342 342 340 338 338 337 330 331 328 330 333 338 336 332 329 325 325 328 327 330 330 328 330 329 328 327 328 327 326 325 324 325 325 325 326 327 328
355 355 353 349 344 341 336 334 335 333 332 336 331 327 321 317 318 323 327 323 329 324 327 328 328 329 330 330 330 329 325 324 325 326 325 324 325 324 324 324 324 324 325
352 351 348 343 341 341 338 336 335 333 332 329 329 326 327 323 313 311 321 323 327 328 333 326 327 329 329 328 328 325 324 323 323 323 323 324 324 324 324 323 323 323 324
347 346 343 341 339 337 334 328 329 330 328 325 322 322 324 321 326 317 311 315 322 324 324 326 327 326 328 329 326 327 325 321 321 320 320 322 323 323 323 323 322 323 323
341 341 340 338 339 338 335 332 329 329 328 327 325 323 318 316 315 315 313 318 317 321 324 326 326 325 326 326 326 325 326 321 319 319 319 319 321 320 321 321 322 321 322
337 334 337 337 335 334 331 330 329 328 327 324 325 320 321 319 319 319 318 316 314 319 321 324 323 325 324 325 325 325 326 322 319 319 318 318 319 318 318 318 318 319 319
333 336 334 333 329 329 328 328 326 325 326 324 324 323 321 321 322 321 317 315 312 315 318 324 323 324 324 324 325 325 323 321 321 319 318 318 318 318 316 315 315 316 316
333 334 331 328 327 327 327 328 325 325 324 324 324 324 323 322 324 321 320 319 315 310 311 318 317 329 324 324 325 324 324 324 322 321 318 317 317 318 316 314 314 314 313
333 331 328 327 326 325 326 326 324 324 323 322 324 323 323 322 323 322 321 320 319 315 311 317 318 325 327 323 324 326 324 323 323 319 317 316 316 316 316 315 313 312 309
331 327 326 325 324 324 324 325 324 322 322 323 324 321 321 323 320 320 320 320 319 318 313 316 321 324 328 329 324 324 321 324 320 317 317 316 315 314 314 314 313 310 308
328 325 324 323 321 322 323 322 321 322 321 320 322 320 319 318 321 323 319 322 320 321 315 315 320 319 323 326 328 323 321 317 318 318 316 315 316 314 312 312 312 310 307
325 324 322 321 320 321 321 322 322 321 322 321 321 320 318 319 318 318 318 318 317 317 317 313 313 317 318 321 319 319 319 318 315 318 315 316 316 315 313 313 312 309 307
323 322 321 320 320 321 321 321 321 321 321 323 322 320 319 316 314 314 314 315 314 313 314 311 311 312 314 317 314 311 309 312 314 313 316 313 313 314 314 313 311 310 306
320 320 319 319 319 316 310 314 321 320 322 320 321 318 315 312 308 307 308 309 310 309 308 307 307 306 307 306 306 307 305 309 311 311 311 312 313 312 313 313 312 307 305
319 319 318 317 316 310 298 301 310 320 320 318 316 317 314 310 309 308 306 307 308 308 306 305 303 302 304 303 304 303 303 302 299 309 309 308 310 308 310 309 305 304 303
319 317 316 315 312 309 297 297 302 320 317 316 315 314 312 309 301 300 301 306 310 306 305 305 301 301 300 302 303 302 303 302 302 307 306 303 307 306 309 308 305 303 302
316 316 315 313 310 303 296 296 298 316 315 313 312 311 310 306 296 295 300 305 306 306 305 301 302 302 304 305 305 304 303 303 304 303 306 298 305 302 305 307 305 303 302
314 314 314 313 310 306 296 296 301 315 313 311 310 304 302 300 291 292 299 301 301 302 301 303 300 298 296 296 298 301 300 298 297 300 304 300 300 300 301 303 305 303 302
313 312 311 311 306 306 294 295 298 312 310 310 310 299 292 293 291 291 297 298 296 297 300 302 305 306 304 306 301 303 303 298 299 297 302 297 298 297 294 301 301 303 303

GFSMA_sfc_thetae_168.txt.gz
Theta_e
352 350 351 343 344 344 343 346 345 351 350 351 349 350 351 353 352 348 345 346 345 344 339 336 335 334 333 333 333 333 333 333 333 334 334 334 334 335 335 336 338 341 342
354 352 353 349 351 348 347 346 349 353 348 350 352 352 349 350 350 349 347 341 343 341 337 333 333 331 331 331 331 331 331 331 332 332 331 332 332 333 332 333 334 335 338
356 354 351 346 347 347 351 352 353 352 352 353 349 346 347 348 348 348 345 342 336 339 336 333 331 332 329 330 331 332 331 331 331 332 332 332 332 331 331 331 331 332 332
356 356 351 349 349 350 352 350 351 346 347 348 343 343 345 348 347 348 343 339 336 332 334 338 336 336 328 328 330 331 331 331 331 332 331 330 329 329 330 331 331 331 331
354 354 351 350 351 352 354 356 352 351 347 341 339 341 343 345 347 343 342 338 334 331 329 333 336 331 326 327 330 330 332 331 329 330 329 328 327 327 328 328 330 331 331
354 353 350 359 356 353 354 353 350 346 342 339 338 337 341 345 346 343 341 337 333 327 325 329 326 326 334 335 329 332 332 330 328 329 327 326 327 326 327 327 327 328 329
353 352 356 356 355 352 352 351 349 344 337 338 337 336 337 340 342 342 341 331 327 324 326 324 326 325 327 334 331 331 329 330 328 327 326 326 326 325 327 326 326 325 325
356 353 357 351 348 346 344 341 343 338 336 334 329 330 325 329 324 330 331 326 324 325 324 325 328 326 327 326 328 330 328 328 328 328 326 325 325 325 325 325 325 325 325
353 356 353 348 347 344 336 336 336 334 330 331 325 325 318 316 316 323 321 320 324 324 324 325 326 327 326 326 327 326 325 326 327 327 324 324 325 325 324 324 324 324 324
352 348 347 343 341 339 338 336 335 333 330 327 329 327 325 322 314 311 319 319 321 321 325 324 325 325 324 323 328 325 327 324 325 324 323 323 324 324 324 323 323 324 324
344 343 343 341 336 335 334 332 328 331 329 327 322 322 322 321 324 317 309 313 319 320 323 325 324 326 325 326 322 325 326 326 322 321 321 321 321 322 322 322 322 322 322
340 338 339 339 339 336 335 331 330 330 328 327 325 323 319 315 313 312 311 313 313 316 320 325 325 322 322 322 326 327 326 326 322 321 320 319 320 320 320 320 320 320 321
333 333 337 337 334 333 332 331 329 327 326 325 323 321 322 320 319 319 315 312 311 315 319 323 323 324 324 322 323 325 327 325 322 320 320 319 318 318 318 319 318 318 318
333 338 334 332 330 329 328 331 327 325 326 324 323 323 322 322 321 319 316 312 309 311 314 315 321 323 323 322 326 328 321 324 321 321 319 318 318 318 317 317 316 316 315
334 332 330 328 328 328 329 329 326 324 324 323 324 324 322 322 322 321 319 317 314 308 309 313 315 320 322 320 324 320 321 322 322 322 317 316 317 318 317 317 316 314 312
332 329 328 327 326 327 327 326 324 325 324 324 322 321 320 321 321 321 320 319 317 314 309 314 315 317 320 321 324 322 320 322 322 318 317 316 316 316 316 315 316 314 311
329 327 326 325 324 324 326 324 324 324 323 322 322 320 318 320 319 319 318 318 316 316 311 313 316 317 317 319 319 318 316 314 313 317 317 318 315 315 315 314 315 315 310
327 325 324 323 323 323 325 324 322 323 322 321 321 319 318 318 317 317 316 316 314 315 312 309 311 312 313 315 313 311 314 311 311 316 316 315 314 314 314 313 313 313 309
325 323 322 321 321 322 322 323 322 322 321 320 321 319 317 315 312 312 312 312 311 311 310 308 307 309 309 310 306 308 306 307 310 315 312 313 312 313 313 312 312 310 307
322 321 321 320 320 318 317 321 322 321 321 321 320 316 313 312 309 308 307 307 307 307 307 305 305 305 305 305 303 301 300 304 305 307 310 311 312 312 311 312 311 308 306
320 320 318 316 313 309 306 312 321 320 320 319 317 314 310 308 307 306 303 301 303 304 305 303 302 301 300 298 298 300 299 301 302 304 304 304 305 306 306 309 307 306 304
319 318 316 313 310 304 299 303 309 319 318 316 314 312 305 301 299 300 301 302 304 304 303 302 299 296 296 298 299 300 299 297 295 302 301 300 303 303 304 303 305 304 303
317 315 312 309 305 302 298 299 303 316 313 312 310 308 306 300 294 294 296 303 305 306 305 302 298 297 297 299 300 299 298 298 297 300 301 298 303 299 302 303 305 303 303
315 313 311 309 304 299 297 297 299 314 311 310 308 305 302 297 293 293 296 299 299 301 299 299 300 300 301 302 300 299 299 300 299 301 303 296 300 298 300 300 304 301 301
313 312 310 307 302 298 296 296 304 315 313 310 298 297 296 294 292 293 296 296 296 297 300 301 301 299 297 297 297 298 299 297 295 297 301 297 298 297 297 298 301 301 301
310 309 307 305 302 299 295 295 303 308 311 303 297 295 294 293 292 292 292 295 293 294 294 296 301 303 304 305 302 303 300 296 296 294 299 296 296 296 292 298 298 299 299

GFSMA_sfc_thetae_171.txt.gz
Theta_e
342 344 342 339 340 340 338 339 336 337 338 341 344 347 347 346 346 346 343 346 344 343 338 335 333 332 332 333 332 332 332 332 332 332 332 333 333 333 332 332 331 331 332
342 340 341 336 337 338 336 338 337 342 340 346 347 345 343 343 345 343 339 338 342 341 339 333 331 332 331 331 332 332 332 332 332 333 332 332 331 330 330 331 332 332 332
343 342 340 336 336 338 340 342 343 343 346 343 340 341 343 344 344 340 337 334 336 339 336 335 337 333 329 331 331 332 332 331 331 332 331 329 328 328 329 330 330 332 332
345 342 339 337 337 338 339 338 342 342 341 337 336 338 337 341 341 341 337 334 329 328 334 339 335 331 327 330 331 333 332 330 330 330 329 329 328 328 329 329 329 328 328
346 341 339 339 335 340 347 345 342 342 336 335 336 333 336 336 338 341 337 328 327 322 320 337 336 331 327 328 330 333 332 330 329 328 328 327 328 327 326 327 326 327 327
347 342 339 341 345 346 344 342 335 335 333 331 334 333 333 334 339 336 333 325 320 319 320 321 320 323 336 332 332 331 331 331 329 328 327 325 325 326 326 326 326 325 326
345 338 348 345 346 344 341 341 336 331 328 328 325 324 327 328 327 332 327 320 318 319 319 322 322 323 323 333 331 330 330 330 329 328 326 324 325 325 326 326 326 326 326
342 348 344 341 341 336 332 331 331 328 329 324 322 323 320 324 318 322 315 318 316 319 321 322 320 322 322 323 326 329 328 328 327 327 325 324 325 325 325 324 325 325 325
349 346 343 340 335 332 330 330 330 329 326 327 322 323 316 314 312 315 315 314 314 318 319 321 321 323 319 320 323 323 325 326 327 327 325 324 324 324 323 322 322 322 322
344 341 338 335 334 332 331 332 330 326 326 322 320 320 317 313 307 305 313 314 316 317 317 319 318 320 319 319 323 326 327 327 326 325 324 323 323 323 322 322 321 321 321
340 339 337 334 331 330 327 325 324 323 319 316 314 312 311 312 311 310 303 308 312 314 315 318 320 319 320 318 317 322 326 327 327 323 322 321 321 322 321 321 320 320 320
336 336 335 334 328 326 324 322 322 321 318 316 316 312 309 308 306 308 307 307 307 310 315 321 321 319 320 317 324 326 326 326 324 323 323 321 320 320 320 320 320 319 319
332 334 332 328 326 324 323 322 320 318 317 315 314 312 313 313 313 310 308 306 305 308 310 312 315 319 321 317 318 326 327 325 321 321 321 321 319 319 319 319 318 317 317
332 331 328 325 322 322 322 321 318 317 317 315 315 315 314 313 313 311 309 306 304 305 307 308 312 314 317 316 321 327 318 322 321 320 319 318 318 319 318 318 316 316 315
328 325 323 321 321 322 320 319 316 315 314 315 314 314 313 314 314 314 314 310 306 301 302 307 308 313 315 315 320 314 313 321 319 318 316 316 317 317 318 318 317 316 316
326 323 321 320 320 319 317 316 315 315 314 314 313 311 312 313 313 313 312 310 310 306 301 306 309 311 312 315 314 311 312 314 315 315 317 316 315 314 316 316 316 316 316
322 321 320 319 318 317 316 315 315 316 314 313 315 312 313 312 310 311 310 310 308 307 303 305 307 308 307 305 305 307 306 306 307 313 315 314 313 313 313 313 313 315 312
321 321 319 318 318 318 316 315 315 316 314 314 315 311 311 311 306 305 307 303 303 304 302 301 302 304 303 301 301 301 303 306 304 309 312 312 309 311 310 311 310 310 308
318 318 317 316 316 315 315 315 315 316 317 315 312 309 307 304 301 301 301 300 300 304 301 300 299 301 299 299 298 300 300 300 304 309 309 308 308 310 311 310 309 307 305
316 314 311 310 309 310 312 316 316 317 316 311 308 306 303 300 297 296 296 295 297 298 299 298 297 297 295 296 296 295 297 298 299 302 304 306 307 308 308 307 308 307 305
313 309 307 305 304 305 306 311 315 315 313 310 304 302 299 298 299 298 295 293 294 296 297 296 293 293 292 294 294 295 294 296 297 297 298 298 300 299 301 303 304 305 304
310 307 304 302 299 301 301 307 312 309 309 306 302 299 296 294 294 297 300 304 301 295 292 292 291 290 290 293 293 293 293 295 294 297 299 299 301 300 301 301 303 302 302
305 301 299 297 295 296 298 303 308 307 304 302 299 296 293 292 292 291 296 299 298 301 300 292 289 291 291 295 294 293 293 295 296 299 299 294 298 297 299 301 303 301 301
304 301 298 295 294 296 297 299 305 304 299 296 293 292 289 288 290 290 292 293 293 293 293 295 292 293 294 295 292 296 296 294 295 299 300 294 297 295 297 298 302 301 301
303 300 297 295 293 293 297 298 305 304 292 290 291 290 290 287 292 293 289 289 290 290 296 299 298 298 297 298 299 297 294 292 291 294 298 294 295 294 295 297 299 301 299
300 299 297 296 296 292 295 297 297 300 292 293 291 291 295 290 292 292 286 285 286 287 289 293 294 296 297 300 300 295 294 291 291 293 297 293 293 293 291 297 297 298 297